Regional Weather Roundup
Issued by NWS Jackson, KY

Home | Current Version | Previous Version | Text Only | Print | Product List | Glossary Off
Versions: 1 2 3 4 5 6 7 8 9 10 11 12 13 14 15 16 17 18 19 20 21 22 23 24 25 26 27 28 29 30 31 32 33 34 35 36 37 38 39 40 41 42 43 44 45 46 47 48 49 50

000
ASUS43 KJKL 260905
RWRJKL

EAST KENTUCKY HOURLY WEATHER ROUNDUP
NATIONAL WEATHER SERVICE JACKSON KY
500 AM EDT SAT JUL 26 2014

NOTE: "FAIR" INDICATES FEW OR NO CLOUDS BELOW 12,000 FEET WITH
NO SIGNIFICANT WEATHER AND/OR OBSTRUCTIONS TO VISIBILITY.

* THESE REPORTS ARE NOT UNDER NWS QUALITY CONTROL AND MAY NOT
  REPORT WEATHER SUCH AS PRECIPITATION AND FOG.

KYZ079-080-083-085-087-088-110-112-115-119-120-261000
...EASTERN KENTUCKY...

CITY           SKY/WX    TMP DP  RH WIND       PRES   REMARKS
JACKSON        CLEAR     62  60  93 CALM      30.04S FOG
LONDON         CLEAR     62  59  90 CALM      30.04F
SOMERSET*      PTCLDY    61  61 100 CALM      30.04F
MONTICELLO*    PTCLDY    62  62 100 CALM      30.04F FOG
WILLIAMSBURG*    N/A    N/A N/A N/A CALM        N/A
MIDDLESBORO*   FOG       62  62 100 CALM      30.06S VSB 1/2
HARLAN APT*    CLOUDY    61  61 100 MISG      30.07R VSB<1/4
BLACK MTN*       N/A     61  55  82 S5          N/A
PIKEVILLE APT* CLEAR     63  61  94 CALM      30.04S
BIG SANDY*     MOSUNNY   65  62  90 CALM      30.03F
MOREHEAD APT*  PTSUNNY   63  61  94 CALM      30.04S
$$

KYZ035-036-041-042-044-050-067-078-099-261000
...CENTRAL KENTUCKY...

CITY           SKY/WX    TMP DP  RH WIND       PRES   REMARKS
MT STERLING*   CLOUDY    63  61  94 SW5       30.02F
FLEMING/MASON* MOCLDY    65  60  85 S5        30.02S
DANVILLE*      PTCLDY    64  61  88 S5        30.02F
RICHMOND*      PTCLDY    64  59  82 CALM      30.02S
LEXINGTON      PTCLDY    66  60  81 S7        30.01S
FRANKFORT      CLEAR     67  60  78 CALM      29.99S
$$

KYZ091>093-OHZ055-061-077-WVZ005-015-034-035-042-261000
...SOUTHERN OHIO/WEST VIRGINIA...

CITY           SKY/WX    TMP DP  RH WIND       PRES   REMARKS
COVINGTON      CLOUDY    68  61  78 SW5       29.98F
COLUMBUS       MOCLDY    70  59  68 SE3       29.98F
DAYTON         CLOUDY    68  61  78 SE5       29.98F
WILMINGTON     CLOUDY    65  60  84 S6        29.99F
HUNTINGTON     PTCLDY    63  61  93 CALM      30.00F FOG
CHARLESTON     MOCLDY    63  63 100 CALM      30.02S
PINEVILLE*     PTCLDY    60  60 100 MISG      30.11S FOG
BECKLEY        PTCLDY    59  56  89 CALM      30.08S
BLUEFIELD      PTCLDY    64  56  75 W5        30.11R
$$

VAZ002-007-008-TNZ017-027-036-066-071-261000
...SOUTHWEST VIRGINIA/EAST TENNESSEE...

CITY           SKY/WX    TMP DP  RH WIND       PRES   REMARKS
WISE*          PTCLDY    63  57  82 CALM      30.11R
JONESVILLE*    FOG       59  59 100 CALM      30.08R VSB 1/2
ABINGDON*      PTCLDY    62  60  95 CALM      30.08R
BRISTOL        PTCLDY    61  59  93 CALM      30.06R
KNOXVILLE      PTCLDY    66  64  93 W3        30.03R
OAK RIDGE      CLEAR     65  62  90 CALM      30.05S
CROSSVILLE     CLEAR     61  57  87 CALM      30.08S
NASHVILLE      CLEAR     68  64  87 CALM      30.02S
$$

...KEY TO REMARKS...
VSB - VISIBILITY IN MILES
WCI - WIND CHILL INDEX
HX  - HEAT INDEX

$$


USA.gov is the U.S. government's official web portal to all federal, state and local government web resources and services.